Year,Month,Day,Hour,Minute,Value (Times are PST for temperature in C)
2015,05,19,08,24,15.80
2015,05,19,08,25,16.00
2015,05,19,08,26,16.10
2015,05,19,08,27,16.20
2015,05,19,08,28,16.30
2015,05,19,08,29,16.40
2015,05,19,08,30,16.60
2015,05,19,08,31,16.70
2015,05,19,08,32,16.80
2015,05,19,08,33,16.90
2015,05,19,08,34,17.00
2015,05,19,08,35,17.00
2015,05,19,08,36,17.10
2015,05,19,08,37,17.10
2015,05,19,08,38,17.20
2015,05,19,08,39,17.30
2015,05,19,08,40,17.40
2015,05,19,08,41,17.40
2015,05,19,08,42,17.40
2015,05,19,08,43,17.40
2015,05,19,08,44,17.30
2015,05,19,08,45,17.20
2015,05,19,08,46,17.10
2015,05,19,08,47,16.90
2015,05,19,08,48,16.90
2015,05,19,08,49,16.80
2015,05,19,08,50,16.90
2015,05,19,08,51,16.80
2015,05,19,08,52,16.70
2015,05,19,08,53,16.70
2015,05,19,08,54,16.60
2015,05,19,08,55,16.60
2015,05,19,08,56,16.50
2015,05,19,08,57,16.40
2015,05,19,08,58,16.30
2015,05,19,08,59,16.20
2015,05,19,09,00,16.30
2015,05,19,09,01,16.30
2015,05,19,09,02,16.30
2015,05,19,09,03,16.40
2015,05,19,09,04,16.40
2015,05,19,09,05,16.40
2015,05,19,09,06,16.40
2015,05,19,09,07,16.40
2015,05,19,09,08,16.40
2015,05,19,09,09,16.30
2015,05,19,09,10,16.30
2015,05,19,09,11,16.40
2015,05,19,09,12,16.40
2015,05,19,09,13,16.60
2015,05,19,09,14,16.70
2015,05,19,09,15,16.80
2015,05,19,09,16,17.00
2015,05,19,09,17,17.00
2015,05,19,09,18,17.10
2015,05,19,09,19,17.10
2015,05,19,09,20,17.20
2015,05,19,09,21,17.30
2015,05,19,09,22,17.40
2015,05,19,09,23,17.50
2015,05,19,09,24,17.60
2015,05,19,09,25,17.70
2015,05,19,09,26,17.70
2015,05,19,09,27,17.80
2015,05,19,09,28,17.80
2015,05,19,09,29,17.80
2015,05,19,09,30,17.80
2015,05,19,09,31,17.80
2015,05,19,09,32,17.90
2015,05,19,09,33,17.90
2015,05,19,09,34,17.90
2015,05,19,09,35,17.90
2015,05,19,09,36,17.90
2015,05,19,09,37,18.10
2015,05,19,09,38,18.10
2015,05,19,09,39,18.20
2015,05,19,09,40,18.30
2015,05,19,09,41,18.40
2015,05,19,09,42,18.40
2015,05,19,09,43,18.40
2015,05,19,09,44,18.40
2015,05,19,09,45,18.50
2015,05,19,09,46,18.50
2015,05,19,09,47,18.50
2015,05,19,09,48,18.60
2015,05,19,09,49,18.60
2015,05,19,09,50,18.70
2015,05,19,09,51,18.70
2015,05,19,09,52,18.80
2015,05,19,09,53,18.80
2015,05,19,09,54,18.80
2015,05,19,09,55,18.80
2015,05,19,09,56,18.90
2015,05,19,09,57,19.00
2015,05,19,09,58,19.00
2015,05,19,09,59,19.10
2015,05,19,10,00,19.20
2015,05,19,10,01,19.20
2015,05,19,10,02,19.20
2015,05,19,10,03,19.30
2015,05,19,10,04,19.30
2015,05,19,10,05,19.20
2015,05,19,10,06,19.20
2015,05,19,10,07,19.10
2015,05,19,10,08,19.00
2015,05,19,10,09,19.10
2015,05,19,10,10,19.10
2015,05,19,10,11,19.20
2015,05,19,10,12,19.30
2015,05,19,10,13,19.30
2015,05,19,10,14,19.20
2015,05,19,10,15,19.00
2015,05,19,10,16,18.70
2015,05,19,10,17,18.50
2015,05,19,10,18,18.40
2015,05,19,10,19,18.50
2015,05,19,10,20,18.60
2015,05,19,10,21,18.70
2015,05,19,10,22,18.80
2015,05,19,10,23,18.90
2015,05,19,10,24,18.90
2015,05,19,10,25,18.80
2015,05,19,10,26,18.70
2015,05,19,10,27,18.60
2015,05,19,10,28,18.60
2015,05,19,10,29,18.60
2015,05,19,10,30,18.60
2015,05,19,10,31,18.60
2015,05,19,10,32,18.70
2015,05,19,10,33,18.80
2015,05,19,10,34,18.90
2015,05,19,10,35,18.90
2015,05,19,10,36,18.90
2015,05,19,10,37,19.00
2015,05,19,10,38,19.10
2015,05,19,10,39,19.10
2015,05,19,10,40,19.20
2015,05,19,10,41,19.20
2015,05,19,10,42,19.30
2015,05,19,10,43,19.30
2015,05,19,10,44,19.40
2015,05,19,10,45,19.40
2015,05,19,10,46,19.40
2015,05,19,10,47,19.40
2015,05,19,10,48,19.30
2015,05,19,10,49,19.40
2015,05,19,10,50,19.40
2015,05,19,10,51,19.40
2015,05,19,10,52,19.50
2015,05,19,10,53,19.60
2015,05,19,10,54,19.50
2015,05,19,10,55,19.40
2015,05,19,10,56,19.30
2015,05,19,10,57,19.30
2015,05,19,10,58,19.30
2015,05,19,10,59,19.40
2015,05,19,11,00,19.40
2015,05,19,11,01,19.40
2015,05,19,11,02,19.50
2015,05,19,11,03,19.50
2015,05,19,11,04,19.60
2015,05,19,11,05,19.50
2015,05,19,11,06,19.30
2015,05,19,11,07,19.20
2015,05,19,11,08,19.10
2015,05,19,11,09,19.10
2015,05,19,11,10,19.10
2015,05,19,11,11,19.20
2015,05,19,11,12,19.20
2015,05,19,11,13,19.10
2015,05,19,11,14,19.00
2015,05,19,11,15,19.00
2015,05,19,11,16,19.10
2015,05,19,11,17,19.10
2015,05,19,11,18,19.20
2015,05,19,11,19,19.20
2015,05,19,11,20,19.10
2015,05,19,11,21,19.20
2015,05,19,11,22,19.00
2015,05,19,11,23,19.00
2015,05,19,11,24,18.90
2015,05,19,11,25,18.90
2015,05,19,11,26,19.00
2015,05,19,11,27,19.10
2015,05,19,11,28,19.30
2015,05,19,11,29,19.30
2015,05,19,11,30,19.40
2015,05,19,11,31,19.40
2015,05,19,11,32,19.20
2015,05,19,11,33,19.10
2015,05,19,11,34,19.10
2015,05,19,11,35,19.00
2015,05,19,11,36,18.90
2015,05,19,11,37,18.80
2015,05,19,11,38,18.80
2015,05,19,11,39,18.90
2015,05,19,11,40,18.90
2015,05,19,11,41,18.90
2015,05,19,11,42,18.90
2015,05,19,11,43,18.90
2015,05,19,11,44,18.90
2015,05,19,11,45,18.80
2015,05,19,11,46,18.80
2015,05,19,11,47,18.90
2015,05,19,11,48,18.90
2015,05,19,11,49,19.00
2015,05,19,11,50,19.00
2015,05,19,11,51,19.10
2015,05,19,11,52,19.20
2015,05,19,11,53,19.10
2015,05,19,11,54,19.10
2015,05,19,11,55,19.00
2015,05,19,11,56,18.90
2015,05,19,11,57,18.80
2015,05,19,11,58,18.80
2015,05,19,11,59,18.70
2015,05,19,12,00,18.70
2015,05,19,12,01,18.70
2015,05,19,12,02,18.80
2015,05,19,12,03,18.80
2015,05,19,12,04,19.00
2015,05,19,12,05,19.10
2015,05,19,12,06,19.30
2015,05,19,12,07,19.40
2015,05,19,12,08,19.60
2015,05,19,12,09,19.70
2015,05,19,12,10,19.60
2015,05,19,12,11,19.70
2015,05,19,12,12,19.60
2015,05,19,12,13,19.60
2015,05,19,12,14,19.50
2015,05,19,12,15,19.60
2015,05,19,12,16,19.60
2015,05,19,12,17,19.70
2015,05,19,12,18,19.80
2015,05,19,12,19,19.90
2015,05,19,12,20,20.00
2015,05,19,12,21,20.10
2015,05,19,12,22,20.20
2015,05,19,12,23,20.30
2015,05,19,12,24,20.40
2015,05,19,12,25,20.30
2015,05,19,12,26,20.30
2015,05,19,12,27,20.30
2015,05,19,12,28,20.20
2015,05,19,12,29,20.20
2015,05,19,12,30,20.30
2015,05,19,12,31,20.30
2015,05,19,12,32,20.20
2015,05,19,12,33,20.10
2015,05,19,12,34,20.00
2015,05,19,12,35,20.00
2015,05,19,12,36,20.10
2015,05,19,12,37,20.00
2015,05,19,12,38,20.00
2015,05,19,12,39,20.00
2015,05,19,12,40,20.00
2015,05,19,12,41,20.00
2015,05,19,12,42,20.00
2015,05,19,12,43,20.10
2015,05,19,12,44,20.20
2015,05,19,12,45,20.20
2015,05,19,12,46,20.00
2015,05,19,12,47,20.00
2015,05,19,12,48,20.00
2015,05,19,12,49,20.10
2015,05,19,12,50,20.00
2015,05,19,12,51,19.90
2015,05,19,12,52,20.00
2015,05,19,12,53,20.10
2015,05,19,12,54,20.10
2015,05,19,12,55,20.00
2015,05,19,12,56,19.90
2015,05,19,12,57,19.80
2015,05,19,12,58,19.80
2015,05,19,12,59,19.70
2015,05,19,13,00,19.80
2015,05,19,13,01,19.80
2015,05,19,13,02,19.80
2015,05,19,13,03,19.90
2015,05,19,13,04,20.00
2015,05,19,13,05,20.10
2015,05,19,13,06,20.30
2015,05,19,13,07,20.50
2015,05,19,13,08,20.50
2015,05,19,13,09,20.40
2015,05,19,13,10,20.30
2015,05,19,13,11,20.20
2015,05,19,13,12,20.10
2015,05,19,13,13,20.20
2015,05,19,13,14,20.40
2015,05,19,13,15,20.40
2015,05,19,13,16,20.50
2015,05,19,13,17,20.50
2015,05,19,13,18,20.40
2015,05,19,13,19,20.20
2015,05,19,13,20,20.10
2015,05,19,13,21,20.00
2015,05,19,13,22,19.90
2015,05,19,13,23,19.90
2015,05,19,13,24,19.90
2015,05,19,13,25,20.10
2015,05,19,13,26,20.20
2015,05,19,13,27,20.10
2015,05,19,13,28,20.10
2015,05,19,13,29,20.20
2015,05,19,13,30,20.20
2015,05,19,13,31,20.10
2015,05,19,13,32,20.00
2015,05,19,13,33,20.00
2015,05,19,13,34,20.00
2015,05,19,13,35,20.00
2015,05,19,13,36,20.10
2015,05,19,13,37,20.20
2015,05,19,13,38,20.20
2015,05,19,13,39,20.30
2015,05,19,13,40,20.40
2015,05,19,13,41,20.60
2015,05,19,13,42,20.70
2015,05,19,13,43,20.60
2015,05,19,13,44,20.60
2015,05,19,13,45,20.70
2015,05,19,13,46,20.60
2015,05,19,13,47,20.50
2015,05,19,13,48,20.50
2015,05,19,13,49,20.60
2015,05,19,13,50,20.70
2015,05,19,13,51,20.80
2015,05,19,13,52,20.80
2015,05,19,13,53,20.80
2015,05,19,13,54,20.80
2015,05,19,13,55,20.80
2015,05,19,13,56,21.00
2015,05,19,13,57,21.00
2015,05,19,13,58,21.10
2015,05,19,13,59,21.10
2015,05,19,14,00,21.10
2015,05,19,14,01,21.00
2015,05,19,14,02,20.90
2015,05,19,14,03,20.80
2015,05,19,14,04,20.80
2015,05,19,14,05,20.80
2015,05,19,14,06,20.70
2015,05,19,14,07,20.70
2015,05,19,14,08,20.50
2015,05,19,14,09,20.40
2015,05,19,14,10,20.40
2015,05,19,14,11,20.30
2015,05,19,14,12,20.30
2015,05,19,14,13,20.30
2015,05,19,14,14,20.40
2015,05,19,14,15,20.50
2015,05,19,14,16,20.60
2015,05,19,14,17,20.60
2015,05,19,14,18,20.60
2015,05,19,14,19,20.60
2015,05,19,14,20,20.70
2015,05,19,14,21,20.80
2015,05,19,14,22,20.70
2015,05,19,14,23,20.70
2015,05,19,14,24,20.60
2015,05,19,14,25,20.50
2015,05,19,14,26,20.50
2015,05,19,14,27,20.50
2015,05,19,14,28,20.50
2015,05,19,14,29,20.50
2015,05,19,14,30,20.50
2015,05,19,14,31,20.50
2015,05,19,14,32,20.50
2015,05,19,14,33,20.60
2015,05,19,14,34,20.70
2015,05,19,14,35,20.70
2015,05,19,14,36,20.80
2015,05,19,14,37,20.80
2015,05,19,14,38,20.70
2015,05,19,14,39,20.70
2015,05,19,14,40,20.80
2015,05,19,14,41,20.70
2015,05,19,14,42,20.70
2015,05,19,14,43,20.70
2015,05,19,14,44,20.60
2015,05,19,14,45,20.70
2015,05,19,14,46,20.80
2015,05,19,14,47,20.80
2015,05,19,14,48,20.80
2015,05,19,14,49,21.00
2015,05,19,14,50,21.10
2015,05,19,14,51,21.20
2015,05,19,14,52,21.30
2015,05,19,14,53,21.40
2015,05,19,14,54,21.30
2015,05,19,14,55,21.20
2015,05,19,14,56,21.30
2015,05,19,14,57,21.20
2015,05,19,14,58,21.20
2015,05,19,14,59,21.20
2015,05,19,15,00,21.20
2015,05,19,15,01,21.20
2015,05,19,15,02,21.20
2015,05,19,15,03,21.20
2015,05,19,15,04,21.20
2015,05,19,15,05,21.10
2015,05,19,15,06,20.90
2015,05,19,15,07,20.80
2015,05,19,15,08,20.70
2015,05,19,15,09,20.70
2015,05,19,15,10,20.70
2015,05,19,15,11,20.80
2015,05,19,15,12,20.80
2015,05,19,15,13,20.80
2015,05,19,15,14,20.80
2015,05,19,15,15,20.80
2015,05,19,15,16,20.70
2015,05,19,15,17,20.70
2015,05,19,15,18,20.60
2015,05,19,15,19,20.60
2015,05,19,15,20,20.60
2015,05,19,15,21,20.60
2015,05,19,15,22,20.70
2015,05,19,15,23,20.80
2015,05,19,15,24,20.90
2015,05,19,15,25,21.00
2015,05,19,15,26,21.10
2015,05,19,15,27,21.10
2015,05,19,15,28,21.20
2015,05,19,15,29,21.20
2015,05,19,15,30,21.10
2015,05,19,15,31,21.10
2015,05,19,15,32,21.10
2015,05,19,15,33,21.10
2015,05,19,15,34,21.00
2015,05,19,15,35,21.00
2015,05,19,15,36,21.00
2015,05,19,15,37,21.00
2015,05,19,15,38,21.00
2015,05,19,15,39,20.90
2015,05,19,15,40,20.90
2015,05,19,15,41,20.90
2015,05,19,15,42,21.00
2015,05,19,15,43,20.90
2015,05,19,15,44,20.90
2015,05,19,15,45,20.90
2015,05,19,15,46,20.90
2015,05,19,15,47,20.90
2015,05,19,15,48,20.90
2015,05,19,15,49,20.80
2015,05,19,15,50,20.80
2015,05,19,15,51,20.80
2015,05,19,15,52,20.90
2015,05,19,15,53,21.00
2015,05,19,15,54,21.00
2015,05,19,15,55,21.00
2015,05,19,15,56,21.00
2015,05,19,15,57,20.90
2015,05,19,15,58,20.80
2015,05,19,15,59,20.70
2015,05,19,16,00,20.80
2015,05,19,16,01,20.80
2015,05,19,16,02,20.80
2015,05,19,16,03,20.70
2015,05,19,16,04,20.70
2015,05,19,16,05,20.70
2015,05,19,16,06,20.70
2015,05,19,16,07,20.60
2015,05,19,16,08,20.60
2015,05,19,16,09,20.70
2015,05,19,16,10,20.80
2015,05,19,16,11,20.90
2015,05,19,16,12,20.90
2015,05,19,16,13,20.80
2015,05,19,16,14,20.70
2015,05,19,16,15,20.80
2015,05,19,16,16,20.70
2015,05,19,16,17,20.80
2015,05,19,16,18,20.80
2015,05,19,16,19,20.70
2015,05,19,16,20,20.70
2015,05,19,16,21,20.70
2015,05,19,16,22,20.70
2015,05,19,16,23,20.70
2015,05,19,16,24,20.70
2015,05,19,16,25,20.70
2015,05,19,16,26,20.80
2015,05,19,16,27,20.80
2015,05,19,16,28,20.90
2015,05,19,16,29,20.90
2015,05,19,16,30,20.90
2015,05,19,16,31,21.00
2015,05,19,16,32,21.10
2015,05,19,16,33,21.20
2015,05,19,16,34,21.30
2015,05,19,16,35,21.30
2015,05,19,16,36,21.40
2015,05,19,16,37,21.50
2015,05,19,16,38,21.50
2015,05,19,16,39,21.40
2015,05,19,16,40,21.40
2015,05,19,16,41,21.40
2015,05,19,16,42,21.50
2015,05,19,16,43,21.70
2015,05,19,16,44,21.80
2015,05,19,16,45,21.80
2015,05,19,16,46,21.90
2015,05,19,16,47,22.00
2015,05,19,16,48,22.10
2015,05,19,16,49,22.10
2015,05,19,16,50,22.10
2015,05,19,16,51,22.10
2015,05,19,16,52,22.20
2015,05,19,16,53,22.20
2015,05,19,16,54,22.30
2015,05,19,16,55,22.30
2015,05,19,16,56,22.30
2015,05,19,16,57,22.30
2015,05,19,16,58,22.20
2015,05,19,16,59,22.30
2015,05,19,17,00,22.30
2015,05,19,17,01,22.30
2015,05,19,17,02,22.20
2015,05,19,17,03,22.10
2015,05,19,17,04,21.90
2015,05,19,17,05,21.80
2015,05,19,17,06,21.80
2015,05,19,17,07,21.80
2015,05,19,17,08,21.80
2015,05,19,17,09,21.80
2015,05,19,17,10,21.80
2015,05,19,17,11,21.80
2015,05,19,17,12,21.80
2015,05,19,17,13,21.90
2015,05,19,17,14,22.00
2015,05,19,17,15,22.00
2015,05,19,17,16,21.90
2015,05,19,17,17,21.90
2015,05,19,17,18,21.90
2015,05,19,17,19,21.90
2015,05,19,17,20,21.90
2015,05,19,17,21,21.90
2015,05,19,17,22,21.80
2015,05,19,17,23,21.80
2015,05,19,17,24,21.70
2015,05,19,17,25,21.80
2015,05,19,17,26,21.80
2015,05,19,17,27,21.70
2015,05,19,17,28,21.70
2015,05,19,17,29,21.60
2015,05,19,17,30,21.50
2015,05,19,17,31,21.40
2015,05,19,17,32,21.40
2015,05,19,17,33,21.40
2015,05,19,17,34,21.40
2015,05,19,17,35,21.30
2015,05,19,17,36,21.20
2015,05,19,17,37,21.20
2015,05,19,17,38,21.20
2015,05,19,17,39,21.20
2015,05,19,17,40,21.20
2015,05,19,17,41,21.10
2015,05,19,17,42,21.10
2015,05,19,17,43,21.10
2015,05,19,17,44,21.10
2015,05,19,17,45,21.00
2015,05,19,17,46,20.90
2015,05,19,17,47,20.90
2015,05,19,17,48,20.80
2015,05,19,17,49,20.70
2015,05,19,17,50,20.70
2015,05,19,17,51,20.60
2015,05,19,17,52,20.70
2015,05,19,17,53,20.60
2015,05,19,17,54,20.60
2015,05,19,17,55,20.50
2015,05,19,17,56,20.50
2015,05,19,17,57,20.40
2015,05,19,17,58,20.40
2015,05,19,17,59,20.30
2015,05,19,18,00,20.30
2015,05,19,18,01,20.30
2015,05,19,18,02,20.30
2015,05,19,18,03,20.30
2015,05,19,18,04,20.30
2015,05,19,18,05,20.30
2015,05,19,18,06,20.30
2015,05,19,18,07,20.20
2015,05,19,18,08,20.10
2015,05,19,18,09,20.00
2015,05,19,18,10,19.90
2015,05,19,18,11,19.70
2015,05,19,18,12,19.60
2015,05,19,18,13,19.50
2015,05,19,18,14,19.40
2015,05,19,18,15,19.30
2015,05,19,18,16,19.20
2015,05,19,18,17,19.10
2015,05,19,18,18,19.00
2015,05,19,18,19,19.00
2015,05,19,18,20,19.00
2015,05,19,18,21,18.90
2015,05,19,18,22,18.80
2015,05,19,18,23,18.80
2015,05,19,18,24,18.80
2015,05,19,18,25,18.70
2015,05,19,18,26,18.60
2015,05,19,18,27,18.50
2015,05,19,18,28,18.50
2015,05,19,18,29,18.40
2015,05,19,18,30,18.40
2015,05,19,18,31,18.30
2015,05,19,18,32,18.20
2015,05,19,18,33,18.20
2015,05,19,18,34,18.20
2015,05,19,18,35,18.20
2015,05,19,18,36,18.20
2015,05,19,18,37,18.20
2015,05,19,18,38,18.20
2015,05,19,18,39,18.10
2015,05,19,18,40,18.10
2015,05,19,18,41,18.10
2015,05,19,18,42,18.10
2015,05,19,18,43,18.10
2015,05,19,18,44,18.10
2015,05,19,18,45,18.20
2015,05,19,18,46,18.10
2015,05,19,18,47,18.10
2015,05,19,18,48,18.00
2015,05,19,18,49,18.00
2015,05,19,18,50,18.00
2015,05,19,18,51,17.90
2015,05,19,18,52,17.90
2015,05,19,18,53,17.80
2015,05,19,18,54,17.80
2015,05,19,18,55,17.80
2015,05,19,18,56,17.80
2015,05,19,18,57,17.80
2015,05,19,18,58,17.80
2015,05,19,18,59,17.80
2015,05,19,19,00,17.70
2015,05,19,19,01,17.70
2015,05,19,19,02,17.70
2015,05,19,19,03,17.60
2015,05,19,19,04,17.60
2015,05,19,19,05,17.50
2015,05,19,19,06,17.50
2015,05,19,19,07,17.40
2015,05,19,19,08,17.40
2015,05,19,19,09,17.30
2015,05,19,19,10,17.30
2015,05,19,19,11,17.30
2015,05,19,19,12,17.30
2015,05,19,19,13,17.20
2015,05,19,19,14,17.20
2015,05,19,19,15,17.20
2015,05,19,19,16,17.30
2015,05,19,19,17,17.30
2015,05,19,19,18,17.30
2015,05,19,19,19,17.20
2015,05,19,19,20,17.20
2015,05,19,19,21,17.10
2015,05,19,19,22,17.10
2015,05,19,19,23,17.00
2015,05,19,19,24,17.00
2015,05,19,19,25,16.90
2015,05,19,19,26,16.90
2015,05,19,19,27,16.80
2015,05,19,19,28,16.80
2015,05,19,19,29,16.80
2015,05,19,19,30,16.80
2015,05,19,19,31,16.80
2015,05,19,19,32,16.80
2015,05,19,19,33,16.80
2015,05,19,19,34,16.80
2015,05,19,19,35,16.80
2015,05,19,19,36,16.80
2015,05,19,19,37,16.80
2015,05,19,19,38,16.80
